Location: Eisingen in Unterfranken
(49.7591°N, 9.8347°E)
Time: 10:25:04
(UTC+01:00)

Envisat - Pass Details

Date: 30 November 2022
Orbit: 763 x 765 km, 98.2° (Epoch: 28 January)

Event Time Altitude Azimuth Distance (km) Brightness Sun altitude
Rises 05:30:23 0° 9° (N) 3,247 6.3 -22.5°
Reaches altitude 10° 05:32:48 10° 2° (N) 2,316 5.4 -22.1°
Enters shadow 05:36:17 35° 328° (NNW) 1,232 3.7 -21.6°
